Overview Statistics Trail Chart Weather Telemetry Raw packets
 

This is the latest recevied weather packets stored in our database for station/object N8TWM-13. If no packets are shown the sender has not sent any weather packets the latest 10 day(s).

<< 18 19 20 21 22 23 24 >>
Time Temp. Humidity Pressure Rain* Wind** Luminosity Snow
1788484432 21.67° C 91% 1016.9 hPa 0 mm - 0 W/m² -
1788484127 21.67° C 91% 1016.6 hPa 0 mm - 0 W/m² -
1788483824 21.67° C 91% 1016.8 hPa 0 mm - 0 W/m² -
1788483519 21.67° C 91% 1016.8 hPa 0 mm - 0 W/m² -
1788483215 21.67° C 90% 1016.9 hPa 0 mm - 0 W/m² -
1788482909 21.67° C 90% 1016.6 hPa 0 mm - 0 W/m² -
1788482606 21.67° C 90% 1016.8 hPa 0 mm - 0 W/m² -
1788482301 21.67° C 90% 1017 hPa 0 mm - 0 W/m² -
1788481997 21.67° C 90% 1017 hPa 0 mm - 0 W/m² -
1788481692 21.67° C 90% 1017.1 hPa 0 mm - 0 W/m² -
1788481388 21.67° C 90% 1017 hPa 0 mm - 0 W/m² -
1788481087 21.67° C 90% 1017.1 hPa 0 mm - 0 W/m² -
1788480782 21.67° C 90% 1016.9 hPa 0 mm - 0 W/m² -
1788480478 22.22° C 90% 1016.3 hPa 1.27 mm - 1 W/m² -
1788480176 22.22° C 89% 1016.6 hPa 1.27 mm - 3 W/m² -
1788479871 22.22° C 89% 1016.9 hPa 0 mm - 7 W/m² -
1788479568 22.22° C 89% 1017 hPa 0 mm - 5 W/m² -
1788479267 22.22° C 88% 1017.8 hPa 0 mm - 0 W/m² -
1788478963 22.78° C 88% 1017.8 hPa 0 mm - 0 W/m² -
1788478659 22.78° C 87% 1017.8 hPa 0 mm - 0 W/m² -
1788478355 22.78° C 86% 1017.7 hPa 0 mm - 0 W/m² -
1788478053 22.78° C 86% 1017.7 hPa 0 mm - 0 W/m² -
1788477750 23.33° C 86% 1017.5 hPa 0 mm - 0 W/m² -
1788477449 23.33° C 85% 1017.5 hPa 0 mm - 1 W/m² -
1788477144 23.33° C 85% 1017.5 hPa 0 mm - 3 W/m² -

* Rain latest hour (hover to see other rain measurements)
** Current wind speed in m/s (hover to see current wind gust speed)